Location: Borger
(52.9222°N, 6.7926°E)
Time: 10:26:50
(UTC+00:00)

Cosmos-2242 - Pass Details

Date: 15 May 2026
Orbit: 565 x 588 km, 82.5° (Epoch: 5 June)

Event Time Altitude Azimuth Distance (km) Brightness Sun altitude
Exits shadow 21:37:46 24° 157° (SSE) 1,194 3.9 -14.1°
Maximum altitude 21:39:54 48° 95° (E) 752 3.3 -14.2°
Drops below altitude 10° 21:43:53 10° 21° (NNE) 1,876 6.2 -14.5°
Sets 21:46:07 0° 16° (NNE) 2,778 7.2 -14.7°
